Orbital elements:
2023 TL4                                            PHA, Earth MOID = 0.0032 AU
Epoch 2023 Sept. 13.0 TT = JDT 2460200.5                Bell                    
M  14.59264              (2000.0)            P               Q                  
n   0.54321075     Peri.   89.19998     +0.11936457     +0.96417838             
a   1.4876148      Node   195.75791     -0.78220370     +0.23826535             
e   0.5800312      Incl.   60.72128     +0.61148137     +0.11657478             
P   1.81           H   20.08          G   0.15           U   8                  
Residuals in seconds of arc
231008 W68  0.2+  0.3+    231009 J95  0.2+  0.3+    231009 H21  0.6-  0.5-
231008 W68  0.3+  0.2+    231009 I93  0.5-  0.3+    231009 H21  0.7-  0.3-
231008 W68  0.2-  0.3-    231009 I93  0.6-  0.2-    231009 I52  0.0   0.3-
231008 W68  0.1+  0.2+    231009 I93  0.2-  0.6-    231009 I52  0.0   0.1-
231008 W68  0.3-  0.2-    231009 I93  0.6-  0.3-    231009 I52  0.1+  0.2-
231008 V27  0.1-  0.2-    231009 I93  0.4-  0.5-    231009 I52  0.1-  0.1+
231008 V27  1.3-  1.2-    231009 L01  0.2-  0.5+    231009 858  0.3-  0.4-
231008 V27  0.4-  0.7-    231009 L01  0.1-  0.3-    231009 858  0.3-  0.2-
231008 V27  0.9-  1.1-    231009 L01  0.3-  0.6-    231009 858  0.2-  0.3-
231008 V27  1.1-  1.3-    231009 C95  0.4-  0.7-    231009 858  0.4-  0.4-
231008 V27  1.1-  1.1-    231009 C95  0.4-  1.0-    231009 858  0.2-  0.3-
231008 I52  0.1+  0.0     231009 C95  0.7-  0.6-    231010 X33  0.0   1.4-
231008 I52  0.1-  0.2+    231009 J95  0.1+  0.2-    231010 X33  2.0+  0.8-
231008 I52  0.0   0.1+    231009 J95  0.1-  0.4+    231010 X33  2.6-  2.3-
231008 I52  0.1+  0.1-    231009 J95  0.1+  0.0     231010 X33  0.9-  1.1+
231008 T05  0.4-  0.7-    231009 J95  0.0   0.1+    231010 X33  0.8-  1.8-
231008 T05  0.2-  0.3-    231009 Z84  0.1-  0.0     231010 X33  1.6-  2.6-
231008 T05  0.6+  0.3+    231009 Z84  0.1-  0.1+    231010 X07  0.3-  0.4-
231008 T05  0.1+  0.3+    231009 Z84  0.1-  0.2-    231010 X07  0.5-  0.5-
231008 H01  1.1-  1.3-    231009 W68  0.0   0.1+    231010 X07  0.4-  0.3-
231008 T05  0.4+  1.2+    231009 W68  0.1+  0.1+    231010 X07  0.2-  0.4-
231008 H01  0.3-  0.3-    231009 W68  0.0   0.1-    231010 Q38  0.6-  0.4-
231008 H01  0.2-  0.3-    231009 W68 (0.6-  0.8-)   231010 Q38  0.3-  0.5-
231008 H01  0.2-  0.2-    231009 H21  1.1-  0.1+    231010 Q38  0.7-  1.1-
231009 J95  0.1-  0.2-    231009 H21  1.1-  0.1-    231010 Q38  0.4-  0.5-
231009 J95  0.3+  0.0     231009 H21  0.7-  0.3-    231010 Q38  0.9-  0.8-
231009 J95  0.5+  0.5-    231009 H21  0.7-  0.1-

Ephemeris:
2023 TL4                 a,e,i = 1.49, 0.58, 61                  q = 0.6248
Date    TT    R. A. (2000) Decl.     Delta      r    Elong.  Phase     V
2023 09 10    11 52 37.5 +49 57 52   0.5586  0.7340    45.6   101.5    21.8
...
2023 09 25    11 28 10.5 +52 20 25   0.2682  0.8704    53.4   112.2    21.2
...
2023 10 03    10 26 57.6 +49 55 48   0.1125  0.9498    60.1   114.0    19.6
...
2023 10 09    05 32 50.3 -17 18 28   0.03409 1.0101   107.8    70.4    15.2
2023 10 10    04 18 37.3 -35 45 22   0.04485 1.0201   117.1    60.6    15.5
2023 10 11    03 23 03.4 -44 22 17   0.06044 1.0301   120.0    57.1    16.1
...
2023 10 17    01 22 18.9 -52 44 35   0.1736  1.0899   118.3    53.6    18.4
...
2023 10 25    00 49 15.8 -52 46 27   0.3308  1.1683   113.9    51.1    19.9
...
2023 11 09    00 36 52.0 -50 55 34   0.6244  1.3092   106.1    46.6    21.4

M. P. C. Staff               (C) Copyright 2023 MPC           M.P.E.C. 2023-T133





More information about the Iaude mailing list